• In Portugal
  • List of Countries
  • For 7 days
  • Water Temperature
  • Satellite Maps
  • Weather Map
  • Weather Widgets
  • user-avatar
    Login

    Hourly Weather Qala i Naw

    Today, 20 January, Saturday

    Time Temperature Precipitation Wind Pressure Humidity
    00:00 +9°C° 0 mm 2 mps 681 mmHg 19%
    01:00 +8°C° 0 mm 3 mps 681 mmHg 19%
    02:00 +8°C° 0 mm 3 mps 681 mmHg 19%
    03:00 +8°C° 0 mm 3 mps 681 mmHg 19%
    04:00 +7°C° 0 mm 2 mps 681 mmHg 20%
    05:00 +7°C° 0 mm 2 mps 680 mmHg 19%
    06:00 +7°C° 0 mm 3 mps 680 mmHg 19%
    07:00 +7°C° 0 mm 3 mps 680 mmHg 19%
    08:00 +10°C° 0 mm 2 mps 681 mmHg 16%
    09:00 +13°C° 0 mm 2 mps 681 mmHg 14%
    10:00 +16°C° 0 mm 1 mps 682 mmHg 11%
    11:00 +18°C° 0 mm 1 mps 681 mmHg 10%
    12:00 +18°C° 0 mm 2 mps 681 mmHg 9%
    13:00 +19°C° 0 mm 2 mps 681 mmHg 8%
    14:00 +19°C° 0 mm 2 mps 680 mmHg 9%
    15:00 +18°C° 0 mm 2 mps 680 mmHg 10%
    16:00 +17°C° 0 mm 2 mps 679 mmHg 12%
    17:00 +15°C° 0 mm 1 mps 679 mmHg 14%
    18:00 +13°C° 0 mm 1 mps 679 mmHg 15%
    19:00 +11°C° 0 mm 1 mps 678 mmHg 17%
    20:00 +11°C° 0 mm 1 mps 678 mmHg 17%
    21:00 +10°C° 0 mm 1 mps 678 mmHg 17%
    22:00 +10°C° 0 mm 1 mps 678 mmHg 17%
    23:00 +9°C° 0 mm 1 mps 678 mmHg 18%

    Tomorrow, 21 January, Sunday

    Time Temperature Precipitation Wind Pressure Humidity
    00:00 +9°C° 0 mm 1 mps 678 mmHg 18%
    01:00 +9°C° 0 mm 1 mps 678 mmHg 18%
    02:00 +8°C° 0 mm 1 mps 678 mmHg 19%
    03:00 +7°C° 0 mm 1 mps 678 mmHg 21%
    04:00 +6°C° 0 mm 2 mps 678 mmHg 22%
    05:00 +5°C° 0 mm 2 mps 678 mmHg 25%
    06:00 +5°C° 0 mm 2 mps 679 mmHg 27%
    07:00 +4°C° 0 mm 2 mps 679 mmHg 30%
    08:00 +5°C° 0 mm 2 mps 679 mmHg 29%
    09:00 +7°C° 0 mm 2 mps 680 mmHg 28%
    10:00 +8°C° 0 mm 2 mps 680 mmHg 26%
    11:00 +9°C° 0 mm 3 mps 680 mmHg 27%
    12:00 +9°C° 0 mm 3 mps 679 mmHg 27%
    13:00 +10°C° 0 mm 3 mps 679 mmHg 27%
    14:00 +10°C° 0 mm 3 mps 679 mmHg 30%
    15:00 +8°C° 0 mm 4 mps 679 mmHg 33%
    16:00 +8°C° 0 mm 4 mps 679 mmHg 36%
    17:00 +8°C° 0 mm 3 mps 679 mmHg 43%
    18:00 +5°C° 0 mm 3 mps 680 mmHg 50%
    19:00 +5°C° 0 mm 2 mps 680 mmHg 57%
    20:00 +5°C° 0 mm 2 mps 680 mmHg 60%
    21:00 +5°C° 0 mm 2 mps 680 mmHg 63%
    22:00 +4°C° 0 mm 2 mps 680 mmHg 65%
    23:00 +5°C° 0 mm 1 mps 680 mmHg 66%

    Day after tomorrow, 22 January, Monday

    Time Temperature Precipitation Wind Pressure Humidity
    00:00 +5°C° 0 mm 1 mps 680 mmHg 68%
    01:00 +5°C° 0 mm 1 mps 680 mmHg 69%
    02:00 +4°C° 0 mm 1 mps 680 mmHg 71%
    03:00 +4°C° 0 mm 1 mps 680 mmHg 73%
    04:00 +3°C° 0 mm 2 mps 680 mmHg 74%
    05:00 +3°C° 0 mm 1 mps 680 mmHg 76%
    06:00 +3°C° 0 mm 1 mps 680 mmHg 77%
    07:00 +2°C° 0 mm 1 mps 681 mmHg 79%
    08:00 +4°C° 0 mm 1 mps 681 mmHg 70%
    09:00 +5°C° 0 mm 1 mps 681 mmHg 62%
    10:00 +7°C° 0 mm 1 mps 682 mmHg 54%
    11:00 +8°C° 0 mm 1 mps 681 mmHg 50%
    12:00 +7°C° 0 mm 2 mps 681 mmHg 45%
    13:00 +8°C° 0 mm 2 mps 680 mmHg 41%
    14:00 +8°C° 0 mm 2 mps 680 mmHg 41%
    15:00 +8°C° 0 mm 2 mps 680 mmHg 41%
    16:00 +8°C° 0 mm 2 mps 680 mmHg 41%
    17:00 +7°C° 0 mm 2 mps 680 mmHg 45%
    18:00 +7°C° 0 mm 1 mps 681 mmHg 49%
    19:00 +6°C° 0 mm 1 mps 681 mmHg 52%
    20:00 +6°C° 0 mm 1 mps 681 mmHg 52%
    21:00 +6°C° 0 mm 1 mps 681 mmHg 52%
    22:00 +6°C° 0 mm 1 mps 681 mmHg 52%
    23:00 +5°C° 0 mm 1 mps 680 mmHg 52%

    23 January, Tuesday

    Time Temperature Precipitation Wind Pressure Humidity
    00:00 +5°C° 0 mm 1 mps 680 mmHg 53%
    01:00 +4°C° 0 mm 0 mps 679 mmHg 53%
    02:00 +5°C° 0 mm 1 mps 679 mmHg 52%
    03:00 +5°C° 0 mm 1 mps 679 mmHg 52%
    04:00 +5°C° 0 mm 1 mps 678 mmHg 52%
    05:00 +5°C° 0 mm 1 mps 678 mmHg 51%
    06:00 +5°C° 0 mm 1 mps 679 mmHg 50%
    07:00 +5°C° 0 mm 1 mps 679 mmHg 49%
    08:00 +8°C° 0 mm 1 mps 679 mmHg 40%
    09:00 +11°C° 0 mm 1 mps 679 mmHg 32%
    10:00 +14°C° 0 mm 2 mps 680 mmHg 23%
    11:00 +15°C° 0 mm 1 mps 679 mmHg 20%
    12:00 +16°C° 0 mm 1 mps 679 mmHg 16%
    13:00 +19°C° 0 mm 1 mps 679 mmHg 13%
    14:00 +18°C° 0 mm 1 mps 678 mmHg 15%
    15:00 +18°C° 0 mm 1 mps 678 mmHg 16%
    16:00 +18°C° 0 mm 1 mps 678 mmHg 17%
    17:00 +15°C° 0 mm 1 mps 678 mmHg 19%
    18:00 +13°C° 0 mm 1 mps 678 mmHg 21%
    19:00 +12°C° 0 mm 1 mps 678 mmHg 23%
    20:00 +10°C° 0 mm 2 mps 678 mmHg 24%
    21:00 +10°C° 0 mm 2 mps 678 mmHg 24%
    22:00 +10°C° 0 mm 2 mps 678 mmHg 25%
    23:00 +9°C° 0 mm 2 mps 678 mmHg 25%

    24 January, Wednesday

    Time Temperature Precipitation Wind Pressure Humidity
    00:00 +9°C° 0 mm 2 mps 677 mmHg 26%
    01:00 +9°C° 0 mm 2 mps 677 mmHg 27%
    02:00 +8°C° 0 mm 2 mps 677 mmHg 27%
    03:00 +8°C° 0 mm 2 mps 677 mmHg 27%
    04:00 +8°C° 0 mm 2 mps 677 mmHg 28%
    05:00 +8°C° 0 mm 2 mps 677 mmHg 28%
    06:00 +8°C° 0 mm 2 mps 678 mmHg 29%
    07:00 +7°C° 0 mm 2 mps 678 mmHg 29%
    08:00 +10°C° 0 mm 2 mps 679 mmHg 25%
    09:00 +13°C° 0 mm 2 mps 679 mmHg 21%
    10:00 +15°C° 0 mm 2 mps 680 mmHg 18%
    11:00 +16°C° 0 mm 2 mps 680 mmHg 16%
    12:00 +17°C° 0 mm 2 mps 680 mmHg 15%
    13:00 +18°C° 0 mm 2 mps 679 mmHg 14%
    14:00 +18°C° 0 mm 3 mps 679 mmHg 15%
    15:00 +18°C° 0 mm 3 mps 679 mmHg 16%
    16:00 +17°C° 0 mm 3 mps 679 mmHg 17%
    17:00 +16°C° 0 mm 2 mps 679 mmHg 21%
    18:00 +14°C° 0 mm 2 mps 680 mmHg 25%
    19:00 +12°C° 0 mm 1 mps 680 mmHg 28%
    20:00 +11°C° 0 mm 1 mps 680 mmHg 29%
    21:00 +11°C° 0 mm 1 mps 680 mmHg 29%
    22:00 +10°C° 0 mm 2 mps 680 mmHg 29%
    23:00 +9°C° 0 mm 2 mps 680 mmHg 30%

    25 January, Thursday

    Time Temperature Precipitation Wind Pressure Humidity
    00:00 +9°C° 0 mm 2 mps 680 mmHg 31%
    01:00 +9°C° 0 mm 2 mps 680 mmHg 32%
    02:00 +9°C° 0 mm 1 mps 680 mmHg 33%
    03:00 +8°C° 0 mm 1 mps 680 mmHg 35%
    04:00 +8°C° 0 mm 1 mps 680 mmHg 36%
    05:00 +7°C° 0 mm 1 mps 680 mmHg 37%
    06:00 +7°C° 0 mm 1 mps 681 mmHg 37%
    07:00 +7°C° 0 mm 1 mps 681 mmHg 38%
    08:00 +9°C° 0 mm 1 mps 682 mmHg 33%
    09:00 +12°C° 0 mm 1 mps 683 mmHg 28%
    10:00 +13°C° 0 mm 0 mps 683 mmHg 23%
    11:00 +15°C° 0 mm 1 mps 683 mmHg 22%
    12:00 +15°C° 0 mm 1 mps 683 mmHg 21%
    13:00 +16°C° 0 mm 2 mps 682 mmHg 20%
    14:00 +16°C° 0 mm 2 mps 682 mmHg 21%
    15:00 +15°C° 0 mm 2 mps 682 mmHg 21%
    16:00 +14°C° 0 mm 3 mps 682 mmHg 22%
    17:00 +14°C° 0 mm 2 mps 682 mmHg 26%
    18:00 +12°C° 0 mm 2 mps 683 mmHg 29%
    19:00 +10°C° 0 mm 1 mps 683 mmHg 33%
    20:00 +10°C° 0 mm 1 mps 683 mmHg 34%
    21:00 +9°C° 0 mm 1 mps 683 mmHg 36%
    22:00 +8°C° 0 mm 1 mps 683 mmHg 37%
    23:00 +8°C° 0 mm 1 mps 683 mmHg 38%
    Show more